METAR Formatted Surface Weather Observation
Issued by NWS

Home | Current Version | Previous Version | Text Only | Print | Product List | Glossary On
Versions: 1 2 3 4 5
000
SPZS31 NSTU 220756
MTRSPP
SPECI NSTU 220748Z 07012KT 7SM -SHRA BKN015 OVC035 26/24 A2972=



USA.gov is the U.S. government's official web portal to all federal, state and local government web resources and services.